Torna al catalogo

STARLINK-35825

AttivoComunicazioniVLEO
NORAD 66567·PAYLOAD·🇺🇸 United States

Lanciato Nov 21, 2025 da Cape Canaveral Space Force Station

Loading…

Prossimi Passaggi (prossime 24 ore)

TLE

AggiornatoSource: CelesTrak SupGP

Epoca: Sep 14, 2026, 22:43 UTC

1 66567C 25268L   26257.94701389 -.00006728  00000+0 -24363-3 0  2578
2 66567  43.0035 357.9494 0001434 268.4359 231.7780 15.27586595    19

Traccia STARLINK-35825 in tempo reale con AllMySat

Download on the App Store